IZ1DSJ Weather Reports


time (UTC)temp
C
wind
direction
speed
KPH
gust
KPH
rain 1hr
cm
rain 24hr
cm
rain mn
cm
humidity
%
barometer
mb
20260506213517 11 0.0 0.0 0.00 0.00 0.00 80 1008.3
20260506212517 11 0.0 0.0 0.00 0.00 0.00 80 1008.1
20260506211537 11 0.0 0.0 0.00 0.00 0.00 80 1008.0
20260506210517 11 0.0 0.0 0.00 0.00 0.00 80 1008.2
20260506205537 11 0.0 0.0 0.00 0.00 0.00 80 1008.0
20260506204517 11 0.0 0.0 0.00 0.00 0.00 80 1007.8
20260506203517 11 0.0 0.0 0.00 0.00 0.00 80 1007.6
20260506202537 11 0.0 0.0 0.00 0.00 0.00 80 1007.6
20260506201516 11 0.0 0.0 0.00 0.00 0.00 80 1007.6
20260506200517 11 0.0 0.0 0.00 0.00 0.00 80 1007.5
20260506195517 11 0.0 0.0 0.00 0.00 0.00 80 1007.3
20260506194517 11 0.0 0.0 0.00 0.00 0.00 80 1006.9
20260506193517 11 0.0 0.0 0.00 0.00 0.00 80 1006.7
20260506192516 11 0.0 0.0 0.00 0.00 0.00 80 1006.6
20260506191517 12 0.0 0.0 0.00 0.00 0.00 80 1006.6
20260506190517 12 0.0 0.0 0.00 0.00 0.00 80 1006.4
20260506185517 12 0.0 0.0 0.00 0.00 0.00 80 1006.2
20260506184516 13 0.0 0.0 0.00 0.00 0.00 80 1005.9
20260506183517 13 0.0 0.0 0.00 0.00 0.00 79 1005.8
20260506182517 13 0.0 0.0 0.00 0.00 0.00 79 1005.5
20260506181516 13 0.0 0.0 0.00 0.00 0.00 78 1005.3
20260506180517 13 0.0 0.0 0.00 0.00 0.00 76 1005.2
20260506175536 14 0.0 0.0 0.00 0.00 0.00 75 1005.2
20260506174537 14 0.0 0.0 0.00 0.00 0.00 76 1004.9
20260506173518 13 0.0 0.0 0.00 0.00 0.00 77 1004.8
20260506172516 13 0.0 0.0 0.00 0.00 0.00 77 1004.5
20260506171516 14 0.0 0.0 0.00 0.00 0.00 76 1004.4
20260506170516 15 0.0 0.0 0.00 0.00 0.00 74 1004.3
20260506165517 16 0.0 0.0 0.00 0.00 0.00 71 1004.1
20260506164516 16 0.0 0.0 0.00 0.00 0.00 70 1003.8
20260506163517 16 0.0 0.0 0.00 0.00 0.00 71 1003.7
20260506162516 16 0.0 0.0 0.00 0.00 0.00 70 1003.7
20260506161517 16 0.0 0.0 0.00 0.00 0.00 74 1003.7
20260506160516 15 0.0 0.0 0.00 0.00 0.00 77 1003.7
20260506155516 15 0.0 0.0 0.00 0.00 0.00 78 1003.7
20260506154516 14 0.0 0.0 0.00 0.00 0.00 79 1003.9
20260506153516 14 0.0 0.0 0.00 0.00 0.00 78 1004.4
20260506152517 14 0.0 0.0 0.00 0.00 0.00 77 1004.6
20260506151517 15 0.0 0.0 0.00 0.00 0.00 77 1004.8
20260506150516 15 0.0 0.0 0.00 0.00 0.00 75 1004.7
20260506145516 15 0.0 0.0 0.00 0.00 0.00 75 1004.8
20260506144517 15 0.0 0.0 0.00 0.00 0.00 73 1004.6
20260506143539 15 0.0 0.0 0.00 0.00 0.00 75 1004.5
20260506142517 15 0.0 0.0 0.00 0.00 0.00 78 1004.6
20260506141517 15 0.0 0.0 0.00 0.00 0.00 78 1004.6
20260506140516 15 0.0 0.0 0.00 0.00 0.00 78 1004.9
20260506135536 15 0.0 0.0 0.00 0.00 0.00 76 1004.9
20260506134516 16 0.0 0.0 0.00 0.00 0.00 73 1004.8
20260506133516 16 0.0 0.0 0.00 0.00 0.00 69 1004.9
20260506132516 16 0.0 0.0 0.00 0.00 0.00 69 1004.6
20260506131517 17 0.0 0.0 0.00 0.00 0.00 65 1004.6
20260506130516 17 0.0 0.0 0.00 0.00 0.00 65 1004.7
20260506125516 17 0.0 0.0 0.00 0.00 0.00 66 1004.7
20260506124516 17 0.0 0.0 0.00 0.00 0.00 67 1004.8
20260506123516 17 0.0 0.0 0.00 0.00 0.00 67 1004.8
20260506122536 16 0.0 0.0 0.00 0.00 0.00 68 1004.9
20260506121516 16 0.0 0.0 0.00 0.00 0.00 67 1004.9
20260506120536 16 0.0 0.0 0.00 0.00 0.00 68 1004.8
20260506115516 16 0.0 0.0 0.00 0.00 0.00 69 1004.9
20260506114517 15 0.0 0.0 0.00 0.00 0.00 69 1004.8
20260506113517 15 0.0 0.0 0.00 0.00 0.00 71 1004.8
20260506112517 15 0.0 0.0 0.00 0.00 0.00 71 1004.9
20260506111537 14 0.0 0.0 0.00 0.00 0.00 73 1004.9
20260506110517 13 0.0 0.0 0.00 0.00 0.00 76 1004.9
20260506105537 13 0.0 0.0 0.00 0.00 0.00 75 1004.9
20260506104516 13 0.0 0.0 0.00 0.00 0.00 76 1005.1
20260506103516 12 0.0 0.0 0.00 0.00 0.00 75 1005.0
20260506102516 12 0.0 0.0 0.00 0.00 0.00 76 1004.9
20260506101516 12 0.0 0.0 0.00 0.00 0.00 77 1004.9
20260506100516 12 0.0 0.0 0.00 0.00 0.00 78 1005.0
20260506095516 12 0.0 0.0 0.00 0.00 0.00 79 1005.0
20260506094516 11 0.0 0.0 0.00 0.00 0.00 80 1005.0
20260506093516 10 0.0 0.0 0.00 0.00 0.00 81 1005.1
20260506092516 10 0.0 0.0 0.00 0.00 0.00 81 1005.2
20260506091516 9 0.0 0.0 0.00 0.00 0.00 81 1005.4
20260506090516 9 0.0 0.0 0.00 0.00 0.00 81 1005.6
20260506085516 9 0.0 0.0 0.00 0.00 0.00 81 1005.8
20260506084516 9 0.0 0.0 0.00 0.00 0.00 81 1005.8
20260506083516 9 0.0 0.0 0.00 0.00 0.00 81 1005.9
20260506082516 10 0.0 0.0 0.00 0.00 0.00 81 1005.9
20260506081516 10 0.0 0.0 0.00 0.00 0.00 81 1005.9
20260506080516 10 0.0 0.0 0.00 0.00 0.00 81 1005.9
20260506073516 10 0.0 0.0 0.00 0.00 0.00 81 1005.9
20260506072516 9 0.0 0.0 0.00 0.00 0.00 81 1005.8
20260506071516 9 0.0 0.0 0.00 0.00 0.00 81 1005.8
20260506070535 9 0.0 0.0 0.00 0.00 0.00 81 1005.9
20260506062515 9 0.0 0.0 0.00 0.00 0.00 81 1006.1
20260506061515 9 0.0 0.0 0.00 0.00 0.00 81 1006.0
20260506060516 9 0.0 0.0 0.00 0.00 0.00 81 1005.9
20260506050515 10 0.0 0.0 0.00 0.00 0.00 81 1006.2
20260506044516 10 0.0 0.0 0.00 0.00 0.00 81 1006.2
20260506043535 10 0.0 0.0 0.00 0.00 0.00 81 1006.1
20260506042517 10 0.0 0.0 0.00 0.00 0.00 81 1006.2
20260506041536 10 0.0 0.0 0.00 0.00 0.00 81 1006.2
20260506040516 10 0.0 0.0 0.00 0.00 0.00 81 1006.2
20260506035516 10 0.0 0.0 0.00 0.00 0.00 81 1006.2
20260506034516 10 0.0 0.0 0.00 0.00 0.00 81 1006.3
20260506033515 10 0.0 0.0 0.00 0.00 0.00 81 1006.5
20260506032515 10 0.0 0.0 0.00 0.00 0.00 81 1006.7
20260506031516 10 0.0 0.0 0.00 0.00 0.00 81 1006.9
20260506030516 10 0.0 0.0 0.00 0.00 0.00 81 1007.1
20260506025536 10 0.0 0.0 0.00 0.00 0.00 81 1007.2
20260506024516 10 0.0 0.0 0.00 0.00 0.00 81 1007.2
20260506023536 10 0.0 0.0 0.00 0.00 0.00 81 1007.2
20260506022517 10 0.0 0.0 0.00 0.00 0.00 81 1007.4
20260506021515 10 0.0 0.0 0.00 0.00 0.00 81 1007.4
20260506020518 10 0.0 0.0 0.00 0.00 0.00 81 1007.4
20260506015516 10 0.0 0.0 0.00 0.00 0.00 81 1007.4
20260506014517 10 0.0 0.0 0.00 0.00 0.00 81 1007.5
20260506013515 10 0.0 0.0 0.00 0.00 0.00 81 1007.6
20260506012517 10 0.0 0.0 0.00 0.00 0.00 81 1007.8
20260506011517 10 0.0 0.0 0.00 0.00 0.00 81 1008.3
20260506010517 10 0.0 0.0 0.00 0.00 0.00 81 1008.4
20260506005518 10 0.0 0.0 0.00 0.00 0.00 81 1008.5
20260506004518 10 0.0 0.0 0.00 0.00 0.00 81 1008.5
20260506003517 10 0.0 0.0 0.00 0.00 0.00 81 1008.5
20260506002518 10 0.0 0.0 0.00 0.00 0.00 81 1008.6
20260506001518 10 0.0 0.0 0.00 0.00 0.00 81 1008.7
20260506000517 10 0.0 0.0 0.00 0.00 0.00 81 1008.9
20260505235537 11 0.0 0.0 0.00 0.00 0.00 81 1009.1
20260505234518 11 0.0 0.0 0.00 0.00 0.00 81 1009.2
20260505233517 11 0.0 0.0 0.00 0.00 0.00 81 1009.4
20260505232518 11 0.0 0.0 0.00 0.00 0.00 81 1009.6
20260505231517 11 0.0 0.0 0.00 0.00 0.00 81 1009.7
20260505230518 11 0.0 0.0 0.00 0.00 0.00 81 1009.7
20260505225517 11 0.0 0.0 0.00 0.00 0.00 81 1009.4
20260505224517 11 0.0 0.0 0.00 0.00 0.00 81 1009.3
20260505223517 11 0.0 0.0 0.00 0.00 0.00 81 1009.6
20260505222517 11 0.0 0.0 0.00 0.00 0.00 80 1009.8
20260505221517 11 0.0 0.0 0.00 0.00 0.00 80 1009.7
20260505220537 11 0.0 0.0 0.00 0.00 0.00 80 1009.8
20260505215517 11 0.0 0.0 0.00 0.00 0.00 80 1009.8
20260505214517 11 0.0 0.0 0.00 0.00 0.00 80 1009.8